This is the latest recevied weather packets stored in our database for station/object W8BS. If no packets are shown the sender has not sent any weather packets the latest 10 day(s).
| Time | Temp. | Humidity | Pressure | Rain* | Wind** | Luminosity | Snow |
|---|---|---|---|---|---|---|---|
| 1778011942 | 22.78° C | 46% | 1010.2 hPa | 0 mm | - | 370 W/m² | - |
| 1778011640 | 22.78° C | 45% | 1010.3 hPa | 0 mm | - | 356 W/m² | - |
| 1778011337 | 22.78° C | 45% | 1010.4 hPa | 0 mm | - | 343 W/m² | - |
| 1778011032 | 22.78° C | 45% | 1010.4 hPa | 0 mm | - | 350 W/m² | - |
| 1778010730 | 22.22° C | 45% | 1010.3 hPa | 0 mm | - | 384 W/m² | - |
| 1778010427 | 22.22° C | 45% | 1010.3 hPa | 0 mm | - | 360 W/m² | - |
| 1778010124 | 22.78° C | 45% | 1010.6 hPa | 0 mm | - | 346 W/m² | - |
| 1778009820 | 22.78° C | 45% | 1010.4 hPa | 0 mm | - | 327 W/m² | - |
| 1778009517 | 22.78° C | 45% | 1010.2 hPa | 0 mm | - | 340 W/m² | - |
| 1778009215 | 22.78° C | 44% | 1010.6 hPa | 0 mm | - | 352 W/m² | - |
| 1778008913 | 22.78° C | 42% | 1010.4 hPa | 0 mm | - | 351 W/m² | - |
| 1778008611 | 22.78° C | 45% | 1010.7 hPa | 0 mm | - | 371 W/m² | - |
| 1778008309 | 23.33° C | 43% | 1010.7 hPa | 0 mm | - | 419 W/m² | - |
| 1778008004 | 22.78° C | 45% | 1010.7 hPa | 0 mm | - | 388 W/m² | - |
| 1778007704 | 23.33° C | 44% | 1010.9 hPa | 0 mm | - | 492 W/m² | - |
| 1778007401 | 23.33° C | 45% | 1011 hPa | 0 mm | - | 534 W/m² | - |
| 1778007097 | 22.78° C | 44% | 1010.8 hPa | 0 mm | - | 495 W/m² | - |
| 1778006794 | 22.78° C | 43% | 1011 hPa | 0 mm | - | 459 W/m² | - |
| 1778006491 | 23.33° C | 43% | 1010.9 hPa | 0 mm | - | 456 W/m² | - |
| 1778006188 | 23.33° C | 44% | 1010.9 hPa | 0 mm | - | 510 W/m² | - |
| 1778005886 | 22.78° C | 43% | 1011 hPa | 0 mm | - | 505 W/m² | - |
| 1778005582 | 23.33° C | 44% | 1011.3 hPa | 0 mm | - | 482 W/m² | - |
| 1778005279 | 23.33° C | 44% | 1011 hPa | 0 mm | - | 483 W/m² | - |
| 1778004975 | 22.78° C | 43% | 1011 hPa | 0 mm | - | 517 W/m² | - |
| 1778004673 | 22.78° C | 44% | 1010.9 hPa | 0 mm | - | 552 W/m² | - |
* Rain latest hour (hover to see other rain measurements)
** Current wind speed in m/s (hover to see current wind gust speed)